THORAD AGENA D DEB

Satellite information

Favourite Embed

Satellite Type and Status

DEBRISIN ORBIT

Key statistics

Satellite THORAD AGENA D DEB at a glance.

Uptime

20233

Days in orbit

Revolutions

≈ 14.2

Per day

Orbit

SSO

Sun Synchronous Orbit

Inclination

100.3

Latest

Satellite identification and parameters

Extended collection of information and parameters for THORAD AGENA D DEB.

Object identification

Identified? True

Debris? True

Object name: THORAD AGENA D DEB

International designator: 1970-025PS

Object number (NORAD): 19150

Object ID (CCSDS): 19150

Country: UNITED STATES OF AMERICA (US)

Current information (Y/N): Y

RCS size: SMALL

Orbital parameters

Period: 101.53 minutes

Inclination: 100.3414 deg

SMA: 7209.24 km

Apoapsis: 844.702 km

Periapsis: 817.507 km

RAAN: 133.9233 deg

Eccentricy: 0.00188618

Argument of periapsis: 243.5134 deg

Mean anomaly: 116.4101 deg

Mean motion: 14.18301562 rev/day

Mean motion (dot): 0.00009587 rev/day2

B* drag term: 0.0046678245 1/REarth

Two-line elements (TLE)

Creation date: Aug. 28, 2025, 2:53 a.m.

Reference frame: TEME

Reference center: EARTH

Epoch: Aug. 27, 2025, 10:59 p.m. UTC

TLE line 0: 0 THORAD AGENA D DEB

TLE line 1: 1 19150U 70025PS 25239.95780253 .00009587 00000-0 46678-2 0 9992

TLE line 2: 2 19150 100.3414 133.9233 0018862 243.5134 116.4101 14.18301562863723

Live tracking on map

Real-time ground track for satellite THORAD AGENA D DEB.

In-orbit conjunctions

A list of the most updated potential collisions computed for object THORAD AGENA D DEB.

Target Orbit TCA Probability of collision Miss distance Type
COSMOS 2369 LEO 2025-03-31 10:38:17 0.0001332832 511.0 (m) PAYLOAD
FENGYUN 1C DEB SSO 2024-09-25 03:52:35 0.003783226 31.0 (m) DEBRIS

Associated space launch

Meteorological research and development satellite

THORAD AGENA D DEB was lifted into orbit during the mission ‘Thorad SLV-2G Agena D | Nimbus 4’, on board a Thorad SLV-2G Agena D space rocket.

The launch took place on April 8, 1970, 8:17 a.m. from Space Launch Complex 2E.

For more information about the launch, click the button.

Launch to space Thorad SLV-2G Agena D | Nimbus 4
Thorad SLV-2G Agena D | Nimbus 4

Agency: N/A

Status: Launch Successful

Launch date: April 8, 1970, 8:17 a.m. UTC

Rocket: Thorad SLV-2G Agena D

Launch pad: Space Launch Complex 2E

Location: Vandenberg SFB, CA, USA

...

Latest news about this satellite

There are no fresh news available about this satellite. Check back as we update our databases every day.


Newsletter sign-up

Weekly statistics, charts and insights to help you stay on top of the space industry.